shoulder
new_line
new_line
first
second
third
Al di la della Luna; Beyond the Moon; Astrophotography; Astrofotografia; Danilo Pivato
 
 
         
         
1992

Orbital Elements

Epoch 1992 Jan 11.0 TT = JDT 2448632.5
T 1992 January 31.99150186 TT                                                                JPL
q   64.3969005           (2000.0)                                    P               Q
n   8.39759965     Peri.  197.872760          -0.00000000     +0.00000000
a   -11126.6887     Node  254.90782          -0.00000000     +0.00000000
e   1.00005787      Incl.     50.02842           -0.00000000     -0.00000000     
 
         
         
1992.01.31 Newton
1992.01.31 Telelens
         
         
       
         
         
         
         
         
         

 

       
 
Since: 01/01/2004
 
       
 
Since: 01/11/2010